GW3327 Weather Reports


time (UTC)temp
F
wind
direction
speed
knots
gust
knots
rain 1hr
in
rain 24hr
in
rain mn
in
humidity
%
barometer
mb
20260504041916 32 230 0.0 0.0 0.00 0.00 0.00 96 1015.5
20260504041412 32 230 0.0 0.0 0.00 0.00 0.00 96 1015.7
20260504040908 32 230 0.0 0.0 0.00 0.00 0.00 96 1015.6
20260504040406 32 230 0.0 0.0 0.00 0.00 0.00 96 1015.7
20260504035902 32 230 0.0 0.0 0.00 0.00 0.00 95 1015.5
20260504035400 32 230 0.0 0.0 0.00 0.00 0.00 95 1015.8
20260504034856 32 230 0.0 0.0 0.00 0.00 0.00 95 1015.7
20260504034354 32 230 0.0 0.0 0.00 0.00 0.00 95 1015.6
20260504033850 32 230 0.0 0.0 0.00 0.00 0.00 95 1015.7
20260504033348 32 230 0.0 0.0 0.00 0.00 0.00 94 1015.7
20260504032845 33 230 0.0 0.0 0.00 0.00 0.00 94 1015.7
20260504032342 33 230 0.0 0.0 0.00 0.00 0.00 94 1015.6
20260504031839 33 230 0.0 0.0 0.00 0.00 0.00 94 1015.5
20260504031336 33 230 0.0 0.0 0.00 0.00 0.00 94 1015.7
20260504030832 33 230 0.0 0.0 0.00 0.00 0.00 94 1015.7
20260504030330 33 230 0.0 0.0 0.00 0.00 0.00 93 1015.7
20260504025826 33 230 0.0 0.0 0.00 0.00 0.00 93 1015.6
20260504025323 34 230 0.0 0.0 0.00 0.00 0.00 93 1015.8
20260504024820 34 230 0.0 0.0 0.00 0.00 0.00 93 1015.7
20260504024316 34 230 0.0 0.0 0.00 0.00 0.00 92 1015.8
20260504023813 34 230 0.0 0.0 0.00 0.00 0.00 92 1015.9
20260504023309 34 230 0.0 0.0 0.00 0.00 0.00 91 1015.9
20260504022805 34 230 0.0 0.0 0.00 0.00 0.00 91 1015.8
20260504022304 35 230 0.0 0.0 0.00 0.00 0.00 90 1015.8
20260504021758 35 230 0.0 0.0 0.00 0.00 0.00 90 1015.7
20260504021256 35 230 0.0 0.0 0.00 0.00 0.00 89 1015.7
20260504020753 36 230 0.0 0.0 0.00 0.00 0.00 89 1015.9
20260504020249 36 230 0.0 0.0 0.00 0.00 0.00 89 1015.7
20260504015745 36 230 0.0 0.0 0.00 0.00 0.00 88 1015.8
20260504015242 37 229 0.0 0.0 0.00 0.00 0.00 88 1015.7
20260504014738 37 230 0.0 0.0 0.00 0.00 0.00 88 1015.8
20260504014235 37 230 0.0 0.0 0.00 0.00 0.00 86 1015.6
20260504013732 37 230 0.0 0.0 0.00 0.00 0.00 86 1015.8
20260504013230 38 230 0.0 0.0 0.00 0.00 0.00 85 1015.7
20260504012726 38 229 0.0 0.0 0.00 0.00 0.00 84 1015.7
20260504012224 39 230 0.0 0.0 0.00 0.00 0.00 84 1015.6
20260504011721 39 229 0.0 0.0 0.00 0.00 0.00 84 1015.6
20260504011218 39 230 0.0 0.0 0.00 0.00 0.00 83 1015.4
20260504010714 39 229 0.0 0.0 0.00 0.00 0.00 81 1015.6
20260504010210 40 229 0.0 0.0 0.00 0.00 0.00 79 1015.6
20260504005706 40 229 0.0 0.0 0.00 0.00 0.00 78 1015.3
20260504005203 41 229 0.0 0.0 0.00 0.00 0.00 77 1015.5
20260504004702 42 229 0.0 0.0 0.00 0.00 0.00 74 1015.5
20260504004158 42 229 0.0 0.0 0.00 0.00 0.00 72 1015.5
20260504003654 44 229 0.0 0.0 0.00 0.00 0.00 67 1015.3
20260504003151 45 229 0.0 0.0 0.00 0.00 0.00 65 1015.2
20260504002648 47 229 0.0 0.0 0.00 0.00 0.00 61 1015.4
20260504002145 49 229 0.0 0.9 0.00 0.00 0.00 53 1015.3
20260504001643 50 220 0.9 1.7 0.00 0.00 0.00 49 1015.3
20260504001139 51 234 0.0 0.0 0.00 0.00 0.00 48 1015.2
20260504000636 51 230 1.7 2.6 0.00 0.00 0.00 46 1015.3
20260504000134 51 203 1.7 2.6 0.00 0.00 0.00 48 1015.3
20260503235631 51 212 0.0 3.5 0.00 0.00 0.00 46 1015.3
20260503235128 51 241 0.9 6.1 0.00 0.00 0.00 48 1015.1
20260503234626 52 213 0.0 0.9 0.00 0.00 0.00 46 1015.3
20260503234124 52 188 0.9 5.2 0.00 0.00 0.00 45 1015.3
20260503233621 52 228 0.9 6.1 0.00 0.00 0.00 43 1015.3
20260503233116 53 327 2.6 7.0 0.00 0.00 0.00 44 1015.3
20260503232613 54 183 5.2 6.1 0.00 0.00 0.00 42 1015.1
20260503232110 54 243 0.0 2.6 0.00 0.00 0.00 44 1015.2
20260503231608 54 253 1.7 2.6 0.00 0.00 0.00 42 1015.1
20260503231104 54 242 1.7 5.2 0.00 0.00 0.00 42 1015.2
20260503230601 55 249 1.7 5.2 0.00 0.00 0.00 41 1015.2
20260503230059 54 196 3.5 7.0 0.00 0.00 0.00 41 1015.2
20260503225555 54 237 4.3 6.1 0.00 0.00 0.00 41 1015.1
20260503225050 54 200 3.5 6.1 0.00 0.00 0.00 41 1015.4
20260503224548 55 219 1.7 5.2 0.00 0.00 0.00 41 1015.2
20260503224046 55 267 3.5 6.1 0.00 0.00 0.00 40 1015.2
20260503223544 54 223 1.7 6.1 0.00 0.00 0.00 42 1015.3
20260503223039 54 264 2.6 7.8 0.00 0.00 0.00 41 1015.3
20260503222537 53 244 3.5 6.1 0.00 0.00 0.00 42 1015.2
20260503222030 55 227 0.0 3.5 0.00 0.00 0.00 41 1015.2
20260503221528 56 228 1.7 2.6 0.00 0.00 0.00 39 1015.3
20260503221025 54 202 3.5 5.2 0.00 0.00 0.00 40 1015.3
20260503220521 55 224 1.7 6.1 0.00 0.00 0.00 41 1015.4
20260503220018 57 208 3.5 9.6 0.00 0.00 0.00 39 1015.2
20260503215515 56 273 3.5 12.2 0.00 0.00 0.00 38 1015.3
20260503215012 56 236 2.6 7.0 0.00 0.00 0.00 38 1015.4
20260503214510 55 265 2.6 3.5 0.00 0.00 0.00 39 1015.2
20260503214006 54 233 2.6 6.1 0.00 0.00 0.00 42 1015.2
20260503213505 56 217 2.6 7.8 0.00 0.00 0.00 39 1015.3
20260503213001 55 247 1.7 6.1 0.00 0.00 0.00 41 1015.5
20260503212458 55 221 1.7 7.8 0.00 0.00 0.00 42 1015.3
20260503211955 56 224 2.6 7.8 0.00 0.00 0.00 40 1015.6
20260503211453 57 240 1.7 7.0 0.00 0.00 0.00 42 1015.5
20260503210948 55 186 3.5 6.1 0.00 0.00 0.00 39 1015.4
20260503210445 55 258 2.6 6.1 0.00 0.00 0.00 41 1015.3
20260503205939 55 343 2.6 6.1 0.00 0.00 0.00 42 1015.6
20260503205437 53 224 4.3 6.1 0.00 0.00 0.00 43 1015.6
20260503204933 54 218 3.5 8.7 0.00 0.00 0.00 41 1015.5
20260503204430 53 252 4.3 7.8 0.00 0.00 0.00 42 1015.5
20260503203927 55 213 0.9 7.0 0.00 0.00 0.00 42 1015.4
20260503203425 56 151 4.3 7.8 0.00 0.00 0.00 41 1015.4
20260503202921 55 224 3.5 8.7 0.00 0.00 0.00 41 1015.5
20260503202420 54 262 1.7 2.6 0.00 0.00 0.00 43 1015.3
20260503201918 55 196 1.7 7.0 0.00 0.00 0.00 41 1015.5
20260503201414 53 238 2.6 6.1 0.00 0.00 0.00 43 1015.6
20260503200912 54 233 2.6 11.3 0.00 0.00 0.00 43 1015.4
20260503200408 53 245 2.6 6.1 0.00 0.00 0.00 41 1015.9
20260503195905 54 212 2.6 9.6 0.00 0.00 0.00 44 1015.9
20260503195402 54 217 4.3 7.0 0.00 0.00 0.00 42 1015.9
20260503194859 53 255 2.6 8.7 0.00 0.00 0.00 41 1016.0
20260503194355 53 204 2.6 6.1 0.00 0.00 0.00 45 1016.1
20260503193851 55 210 2.6 7.0 0.00 0.00 0.00 43 1016.1
20260503193347 55 179 3.5 8.7 0.00 0.00 0.00 44 1016.1
20260503192843 56 41 5.2 7.8 0.00 0.00 0.00 40 1016.1
20260503192338 55 200 0.9 7.0 0.00 0.00 0.00 42 1016.1
20260503191835 55 210 0.0 3.5 0.00 0.00 0.00 41 1016.1
20260503191332 55 269 2.6 6.1 0.00 0.00 0.00 42 1016.0
20260503190829 55 174 3.5 7.8 0.00 0.00 0.00 43 1016.4
20260503190326 54 185 4.3 7.8 0.00 0.00 0.00 42 1016.2
20260503185823 53 210 3.5 8.7 0.00 0.00 0.00 41 1016.5
20260503185320 54 250 1.7 5.2 0.00 0.00 0.00 42 1016.6
20260503184819 55 196 4.3 8.7 0.00 0.00 0.00 40 1016.5
20260503184316 55 144 3.5 5.2 0.00 0.00 0.00 42 1016.6
20260503183811 54 252 4.3 7.8 0.00 0.00 0.00 40 1016.7
20260503183309 52 278 1.7 5.2 0.00 0.00 0.00 45 1016.6
20260503182806 55 284 1.7 7.8 0.00 0.00 0.00 41 1016.8
20260503182306 55 261 1.7 6.1 0.00 0.00 0.00 41 1016.7
20260503181802 53 210 1.7 7.0 0.00 0.00 0.00 41 1016.7
20260503181259 54 220 5.2 9.6 0.00 0.00 0.00 39 1016.8
20260503180755 54 287 5.2 7.0 0.00 0.00 0.00 46 1016.7
20260503180253 54 263 2.6 6.1 0.00 0.00 0.00 42 1016.9
20260503175749 54 310 2.6 5.2 0.00 0.00 0.00 43 1016.9
20260503175248 51 1 4.3 6.1 0.00 0.00 0.00 45 1016.8
20260503174743 54 204 2.6 6.1 0.00 0.00 0.00 42 1016.9
20260503174242 52 288 3.5 9.6 0.00 0.00 0.00 45 1017.1
20260503173742 50 215 4.3 7.0 0.00 0.00 0.00 46 1017.1
20260503173238 51 277 2.6 9.6 0.00 0.00 0.00 46 1017.2
20260503172735 52 200 1.7 7.8 0.00 0.00 0.00 46 1017.0
20260503172232 50 203 2.6 11.3 0.00 0.00 0.00 44 1017.3
20260503171728 50 184 2.6 13.9 0.00 0.00 0.00 46 1017.3
20260503171226 52 176 4.3 7.0 0.00 0.00 0.00 45 1017.5
20260503170723 52 225 4.3 5.2 0.00 0.00 0.00 42 1017.3
20260503170220 50 253 2.6 6.1 0.00 0.00 0.00 48 1017.2
20260503160141 49 289 0.9 2.6 0.00 0.00 0.00 50 1017.8
20260503150611 47 252 1.7 3.5 0.00 0.00 0.00 52 1017.9
20260503150108 47 233 3.5 6.1 0.00 0.00 0.00 49 1018.2
20260503131001 42 260 1.7 8.7 0.00 0.00 0.00 65 1018.0
20260503130459 42 234 1.7 6.1 0.00 0.00 0.00 70 1017.9
20260503110350 27 242 0.0 0.0 0.00 0.00 0.00 98 1017.6
20260503090235 27 242 0.0 0.0 0.00 0.00 0.00 97 1016.6
20260503081203 29 242 0.0 0.0 0.00 0.00 0.00 97 1016.5
20260503080658 29 242 0.0 0.0 0.00 0.00 0.00 97 1016.2
20260503080155 30 242 0.0 0.0 0.00 0.00 0.00 97 1016.2
20260503072632 29 242 0.0 0.0 0.00 0.00 0.00 96 1016.1
20260503072129 29 242 0.0 0.0 0.00 0.00 0.00 96 1016.1
20260503071626 28 242 0.0 0.0 0.00 0.00 0.00 96 1015.8
20260503071122 28 242 0.0 0.0 0.00 0.00 0.00 95 1015.8
20260503070620 28 242 0.0 0.0 0.00 0.00 0.00 95 1016.0
20260503070118 28 242 0.0 0.0 0.00 0.00 0.00 95 1015.8
20260503055038 32 242 0.0 0.0 0.00 0.00 0.00 89 1016.0
20260503054534 32 242 0.0 0.0 0.00 0.00 0.00 88 1016.1
20260503054031 32 242 0.0 0.0 0.00 0.00 0.00 88 1016.1
20260503053529 33 242 0.0 0.0 0.00 0.00 0.00 88 1015.9
20260503053027 33 242 0.0 0.0 0.00 0.00 0.00 87 1016.0
20260503052523 33 242 0.0 0.0 0.00 0.00 0.00 87 1016.1
20260503052020 33 242 0.0 0.0 0.00 0.00 0.00 87 1016.0
20260503051515 33 242 0.0 0.0 0.00 0.00 0.00 88 1016.0
20260503051013 33 242 0.0 0.0 0.00 0.00 0.00 88 1015.9
20260503050509 33 242 0.0 0.0 0.00 0.00 0.00 87 1016.2
20260503050006 34 242 0.0 0.0 0.00 0.00 0.00 86 1016.4
20260503045503 34 241 0.0 0.0 0.00 0.00 0.00 85 1016.5
20260503045001 35 242 0.0 0.0 0.00 0.00 0.00 83 1016.2
20260503044457 35 241 0.0 0.9 0.00 0.00 0.00 83 1016.4
20260503043955 35 236 0.0 0.9 0.00 0.00 0.00 82 1016.6
20260503043450 36 235 0.9 0.9 0.00 0.00 0.00 82 1016.5
20260503042947 36 254 0.9 0.9 0.00 0.00 0.00 82 1016.5
20260503042444 36 254 0.0 2.6 0.00 0.00 0.00 81 1016.4